Time,TemperatureF,DewpointF,PressureIn,WindDirection,WindDirectionDegrees,WindSpeedMPH,WindSpeedGustMPH,Humidity,HourlyPrecipIn,Conditions,Clouds,dailyrainin,SoftwareType,DateUTC
2013-03-29 00:00:00,30.6,27.5,30.07,North,349,0.0,0.0,88,0.00,,,0.01,Wunderground v.1.15,2013-03-29 04:00:00,
2013-03-29 00:05:00,30.4,27.5,30.07,North,349,0.0,0.0,89,0.00,,,0.00,Wunderground v.1.15,2013-03-29 04:05:00,
2013-03-29 00:10:00,30.4,27.8,30.08,North,349,0.0,0.0,90,0.00,,,0.00,Wunderground v.1.15,2013-03-29 04:10:00,
2013-03-29 00:15:00,30.3,27.7,30.08,North,349,0.0,0.0,90,0.00,,,0.00,Wunderground v.1.15,2013-03-29 04:15:00,
2013-03-29 00:20:00,30.3,27.7,30.08,North,349,0.0,0.0,90,0.00,,,0.00,Wunderground v.1.15,2013-03-29 04:20:00,
2013-03-29 00:25:00,30.3,27.7,30.08,North,349,0.0,0.0,90,0.00,,,0.00,Wunderground v.1.15,2013-03-29 04:25:00,
2013-03-29 00:30:00,30.3,27.7,30.08,North,349,0.0,0.0,90,0.00,,,0.00,Wunderground v.1.15,2013-03-29 04:30:00,
2013-03-29 00:35:00,30.3,27.7,30.08,North,349,0.0,0.0,90,0.00,,,0.00,Wunderground v.1.15,2013-03-29 04:35:00,
2013-03-29 00:40:00,30.3,27.7,30.08,North,349,0.0,0.0,90,0.00,,,0.00,Wunderground v.1.15,2013-03-29 04:40:00,
2013-03-29 00:45:00,30.3,27.7,30.08,North,349,0.0,0.0,90,0.00,,,0.00,Wunderground v.1.15,2013-03-29 04:45:00,
2013-03-29 00:50:00,30.3,28.0,30.08,North,349,0.0,0.0,91,0.00,,,0.00,Wunderground v.1.15,2013-03-29 04:50:00,
2013-03-29 01:00:00,30.4,28.1,30.08,North,349,0.0,0.0,91,0.00,,,0.00,Wunderground v.1.15,2013-03-29 05:00:00,
2013-03-29 01:05:00,30.4,28.1,30.08,North,349,0.0,0.0,91,0.00,,,0.00,Wunderground v.1.15,2013-03-29 05:05:00,
2013-03-29 01:15:00,30.4,27.8,30.08,North,349,0.0,0.0,90,0.00,,,0.00,Wunderground v.1.15,2013-03-29 05:15:00,
2013-03-29 01:20:00,30.4,28.1,30.08,North,349,0.0,0.0,91,0.00,,,0.00,Wunderground v.1.15,2013-03-29 05:20:00,
2013-03-29 01:25:00,30.6,28.3,30.09,North,349,0.0,0.0,91,0.00,,,0.00,Wunderground v.1.15,2013-03-29 05:25:00,
2013-03-29 01:35:00,30.6,28.3,30.09,North,349,0.0,0.0,91,0.00,,,0.00,Wunderground v.1.15,2013-03-29 05:35:00,
2013-03-29 01:40:00,30.6,28.3,30.09,North,349,0.0,0.0,91,0.00,,,0.00,Wunderground v.1.15,2013-03-29 05:40:00,
2013-03-29 01:45:00,30.6,28.3,30.08,North,349,0.0,0.0,91,0.00,,,0.00,Wunderground v.1.15,2013-03-29 05:45:00,
2013-03-29 01:50:00,30.6,28.3,30.08,North,349,0.0,0.0,91,0.00,,,0.00,Wunderground v.1.15,2013-03-29 05:50:00,
2013-03-29 02:00:00,30.7,28.4,30.08,North,349,0.0,0.0,91,0.00,,,0.00,Wunderground v.1.15,2013-03-29 06:00:00,
2013-03-29 02:10:00,30.7,28.4,30.08,North,349,0.0,0.0,91,0.00,,,0.00,Wunderground v.1.15,2013-03-29 06:10:00,
2013-03-29 02:15:00,30.7,28.4,30.08,North,349,0.0,0.0,91,0.00,,,0.00,Wunderground v.1.15,2013-03-29 06:15:00,
2013-03-29 02:20:00,30.7,28.4,30.08,North,349,0.0,0.0,91,0.00,,,0.00,Wunderground v.1.15,2013-03-29 06:20:00,
2013-03-29 02:25:00,30.6,28.3,30.08,North,349,0.0,0.0,91,0.00,,,0.00,Wunderground v.1.15,2013-03-29 06:25:00,
2013-03-29 02:35:00,30.6,28.0,30.08,North,349,0.0,0.0,90,0.00,,,0.00,Wunderground v.1.15,2013-03-29 06:35:00,
2013-03-29 02:40:00,30.4,27.8,30.08,North,349,0.0,0.0,90,0.00,,,0.00,Wunderground v.1.15,2013-03-29 06:40:00,
2013-03-29 02:45:00,30.4,27.8,30.08,North,349,0.0,0.0,90,0.00,,,0.00,Wunderground v.1.15,2013-03-29 06:45:00,
2013-03-29 02:55:00,30.1,27.8,30.08,North,349,0.0,0.0,91,0.00,,,0.00,Wunderground v.1.15,2013-03-29 06:55:00,
2013-03-29 03:00:00,30.1,27.8,30.08,North,349,0.0,0.0,91,0.00,,,0.00,Wunderground v.1.15,2013-03-29 07:00:00,
2013-03-29 03:05:00,30.0,27.7,30.08,North,349,0.0,0.0,91,0.00,,,0.00,Wunderground v.1.15,2013-03-29 07:05:00,
2013-03-29 03:15:00,30.0,28.0,30.08,North,349,0.0,0.0,92,0.00,,,0.00,Wunderground v.1.15,2013-03-29 07:15:00,
2013-03-29 03:20:00,29.8,27.5,30.08,North,349,0.0,0.0,91,0.00,,,0.00,Wunderground v.1.15,2013-03-29 07:20:00,
2013-03-29 03:25:00,29.8,27.8,30.08,North,349,0.0,0.0,92,0.00,,,0.00,Wunderground v.1.15,2013-03-29 07:25:00,
2013-03-29 03:35:00,29.7,27.7,30.08,North,349,0.0,0.0,92,0.00,,,0.00,Wunderground v.1.15,2013-03-29 07:35:00,
2013-03-29 03:40:00,29.7,27.7,30.08,North,349,0.0,0.0,92,0.00,,,0.00,Wunderground v.1.15,2013-03-29 07:40:00,
2013-03-29 03:45:00,29.7,27.7,30.08,North,349,0.0,0.0,92,0.00,,,0.00,Wunderground v.1.15,2013-03-29 07:45:00,
2013-03-29 03:50:00,29.7,27.7,30.08,North,349,0.0,0.0,92,0.00,,,0.00,Wunderground v.1.15,2013-03-29 07:50:00,
2013-03-29 04:00:00,29.7,27.7,30.08,North,349,0.0,0.0,92,0.00,,,0.00,Wunderground v.1.15,2013-03-29 08:00:00,
2013-03-29 04:10:00,29.7,27.7,30.08,North,349,0.0,0.0,92,0.00,,,0.00,Wunderground v.1.15,2013-03-29 08:10:00,
2013-03-29 04:15:00,29.5,27.5,30.08,North,349,0.0,0.0,92,0.00,,,0.00,Wunderground v.1.15,2013-03-29 08:15:00,
2013-03-29 04:20:00,29.5,27.5,30.08,North,349,0.0,0.0,92,0.00,,,0.00,Wunderground v.1.15,2013-03-29 08:20:00,
2013-03-29 04:25:00,29.4,27.4,30.08,North,349,0.0,0.0,92,0.00,,,0.00,Wunderground v.1.15,2013-03-29 08:25:00,
2013-03-29 04:30:00,29.3,27.3,30.08,North,349,0.0,0.0,92,0.00,,,0.00,Wunderground v.1.15,2013-03-29 08:30:00,
2013-03-29 04:40:00,29.1,27.1,30.08,North,349,0.0,0.0,92,0.00,,,0.00,Wunderground v.1.15,2013-03-29 08:40:00,
2013-03-29 04:45:00,29.0,27.0,30.08,North,349,0.0,0.0,92,0.00,,,0.00,Wunderground v.1.15,2013-03-29 08:45:00,
2013-03-29 04:50:00,28.8,26.8,30.08,North,349,0.0,0.0,92,0.00,,,0.00,Wunderground v.1.15,2013-03-29 08:50:00,
2013-03-29 05:00:00,28.7,26.9,30.08,North,349,0.0,0.0,93,0.00,,,0.00,Wunderground v.1.15,2013-03-29 09:00:00,
2013-03-29 05:05:00,28.5,26.7,30.08,North,349,0.0,0.0,93,0.00,,,0.00,Wunderground v.1.15,2013-03-29 09:05:00,
2013-03-29 05:15:00,28.4,26.6,30.08,North,349,0.0,0.0,93,0.00,,,0.00,Wunderground v.1.15,2013-03-29 09:15:00,
2013-03-29 05:20:00,28.2,26.4,30.08,North,349,0.0,0.0,93,0.00,,,0.00,Wunderground v.1.15,2013-03-29 09:20:00,
2013-03-29 05:25:00,28.2,26.4,30.08,North,349,0.0,0.0,93,0.00,,,0.00,Wunderground v.1.15,2013-03-29 09:25:00,
2013-03-29 05:30:00,28.1,26.3,30.08,North,349,0.0,0.0,93,0.00,,,0.00,Wunderground v.1.15,2013-03-29 09:30:00,
2013-03-29 05:40:00,28.1,26.6,30.08,North,349,0.0,0.0,94,0.00,,,0.00,Wunderground v.1.15,2013-03-29 09:40:00,
2013-03-29 05:45:00,28.1,26.6,30.08,North,349,0.0,0.0,94,0.00,,,0.00,Wunderground v.1.15,2013-03-29 09:45:00,
2013-03-29 05:50:00,28.1,26.6,30.08,North,349,0.0,0.0,94,0.00,,,0.00,Wunderground v.1.15,2013-03-29 09:50:00,
2013-03-29 06:00:00,27.9,26.4,30.08,North,349,0.0,0.0,94,0.00,,,0.00,Wunderground v.1.15,2013-03-29 10:00:00,
2013-03-29 06:05:00,27.9,26.4,30.08,North,349,0.0,0.0,94,0.00,,,0.00,Wunderground v.1.15,2013-03-29 10:05:00,
2013-03-29 06:15:00,27.8,26.3,30.08,North,349,0.0,0.0,94,0.00,,,0.00,Wunderground v.1.15,2013-03-29 10:15:00,
2013-03-29 06:20:00,27.8,26.3,30.08,North,349,0.0,0.0,94,0.00,,,0.00,Wunderground v.1.15,2013-03-29 10:20:00,
2013-03-29 06:25:00,27.8,26.3,30.08,North,349,0.0,0.0,94,0.00,,,0.00,Wunderground v.1.15,2013-03-29 10:25:00,
2013-03-29 06:35:00,27.8,26.3,30.08,North,349,0.0,0.0,94,0.00,,,0.00,Wunderground v.1.15,2013-03-29 10:35:00,
2013-03-29 06:40:00,27.8,26.3,30.08,North,349,0.0,0.0,94,0.00,,,0.00,Wunderground v.1.15,2013-03-29 10:40:00,
2013-03-29 06:45:00,27.8,26.6,30.08,North,349,0.0,0.0,95,0.00,,,0.00,Wunderground v.1.15,2013-03-29 10:45:00,
2013-03-29 06:50:00,27.8,26.6,30.08,North,349,0.0,0.0,95,0.00,,,0.00,Wunderground v.1.15,2013-03-29 10:50:00,
2013-03-29 07:00:00,27.8,26.3,30.09,North,349,0.0,0.0,94,0.00,,,0.00,Wunderground v.1.15,2013-03-29 11:00:00,
2013-03-29 07:10:00,27.6,26.4,30.09,North,349,0.0,0.0,95,0.00,,,0.00,Wunderground v.1.15,2013-03-29 11:10:00,
2013-03-29 07:15:00,27.6,26.4,30.09,North,349,0.0,0.0,95,0.00,,,0.00,Wunderground v.1.15,2013-03-29 11:15:00,
2013-03-29 07:20:00,27.8,26.6,30.09,North,349,0.0,0.0,95,0.00,,,0.00,Wunderground v.1.15,2013-03-29 11:20:00,
2013-03-29 07:25:00,27.8,26.6,30.09,North,349,0.0,0.0,95,0.00,,,0.00,Wunderground v.1.15,2013-03-29 11:25:00,
2013-03-29 07:35:00,27.9,26.7,30.09,North,349,0.0,0.0,95,0.00,,,0.00,Wunderground v.1.15,2013-03-29 11:35:00,
2013-03-29 07:40:00,27.9,26.7,30.10,North,349,0.0,0.0,95,0.00,,,0.00,Wunderground v.1.15,2013-03-29 11:40:00,
2013-03-29 07:45:00,27.9,26.7,30.09,North,349,0.0,0.0,95,0.00,,,0.00,Wunderground v.1.15,2013-03-29 11:45:00,
2013-03-29 07:55:00,28.1,26.9,30.10,North,349,0.0,0.0,95,0.00,,,0.00,Wunderground v.1.15,2013-03-29 11:55:00,
2013-03-29 08:00:00,28.1,26.9,30.10,North,349,0.0,0.0,95,0.00,,,0.00,Wunderground v.1.15,2013-03-29 12:00:00,
2013-03-29 08:10:00,28.4,27.2,30.10,North,349,0.0,0.0,95,0.00,,,0.00,Wunderground v.1.15,2013-03-29 12:10:00,
2013-03-29 08:15:00,28.4,27.2,30.09,North,349,0.0,0.0,95,0.00,,,0.00,Wunderground v.1.15,2013-03-29 12:15:00,
2013-03-29 08:20:00,28.7,27.4,30.10,NNW,348,0.0,0.0,95,0.00,,,0.00,Wunderground v.1.15,2013-03-29 12:20:00,
2013-03-29 08:30:00,30.1,29.1,30.10,North,350,0.0,0.0,96,0.00,,,0.00,Wunderground v.1.15,2013-03-29 12:30:00,
2013-03-29 08:35:00,30.4,29.4,30.10,North,350,0.0,0.0,96,0.00,,,0.00,Wunderground v.1.15,2013-03-29 12:35:00,
2013-03-29 08:40:00,31.0,30.0,30.09,North,350,0.0,2.0,96,0.00,,,0.00,Wunderground v.1.15,2013-03-29 12:40:00,
2013-03-29 08:45:00,31.5,30.2,30.10,North,350,0.0,2.0,95,0.00,,,0.00,Wunderground v.1.15,2013-03-29 12:45:00,
2013-03-29 08:55:00,32.8,31.3,30.09,East,93,1.0,1.0,94,0.00,,,0.00,Wunderground v.1.15,2013-03-29 12:55:00,
2013-03-29 09:00:00,33.2,31.1,30.09,East,93,0.0,0.0,92,0.00,,,0.00,Wunderground v.1.15,2013-03-29 13:00:00,
2013-03-29 09:10:00,34.3,31.9,30.09,East,93,0.0,0.0,91,0.00,,,0.00,Wunderground v.1.15,2013-03-29 13:10:00,
2013-03-29 09:15:00,35.0,32.4,30.09,East,93,0.0,0.0,90,0.00,,,0.00,Wunderground v.1.15,2013-03-29 13:15:00,
2013-03-29 09:20:00,36.0,32.5,30.09,East,91,0.0,0.0,87,0.00,,,0.00,Wunderground v.1.15,2013-03-29 13:20:00,
2013-03-29 09:30:00,38.3,32.7,30.09,SSE,158,1.0,2.0,80,0.00,,,0.00,Wunderground v.1.15,2013-03-29 13:30:00,
2013-03-29 09:35:00,40.1,33.1,30.09,WNW,303,1.0,2.0,76,0.00,,,0.00,Wunderground v.1.15,2013-03-29 13:35:00,
2013-03-29 09:40:00,41.1,32.8,30.08,WNW,289,1.0,1.0,72,0.00,,,0.00,Wunderground v.1.15,2013-03-29 13:40:00,
2013-03-29 09:50:00,42.8,33.0,30.09,WNW,294,1.0,1.0,68,0.00,,,0.00,Wunderground v.1.15,2013-03-29 13:50:00,
2013-03-29 09:55:00,43.3,32.3,30.09,WSW,250,1.0,1.0,65,0.00,,,0.00,Wunderground v.1.15,2013-03-29 13:55:00,
2013-03-29 10:00:00,43.9,32.5,30.08,NNW,335,2.0,4.0,64,0.00,,,0.00,Wunderground v.1.15,2013-03-29 14:00:00,
2013-03-29 10:10:00,44.6,32.0,30.08,North,355,2.0,2.0,61,0.00,,,0.00,Wunderground v.1.15,2013-03-29 14:10:00,
2013-03-29 10:15:00,45.7,32.6,30.08,NW,326,2.0,2.0,60,0.00,,,0.00,Wunderground v.1.15,2013-03-29 14:15:00,
2013-03-29 10:20:00,46.5,32.5,30.09,North,360,3.0,3.0,58,0.00,,,0.00,Wunderground v.1.15,2013-03-29 14:20:00,
2013-03-29 10:30:00,48.2,34.1,30.08,NW,313,3.0,3.0,58,0.00,,,0.00,Wunderground v.1.15,2013-03-29 14:30:00,
2013-03-29 10:35:00,48.6,32.7,30.08,NNE,28,2.0,4.0,54,0.00,,,0.00,Wunderground v.1.15,2013-03-29 14:35:00,
2013-03-29 10:40:00,48.6,33.1,30.08,NW,319,1.0,1.0,55,0.00,,,0.00,Wunderground v.1.15,2013-03-29 14:40:00,
2013-03-29 10:50:00,48.5,32.6,30.08,North,360,0.0,3.0,54,0.00,,,0.00,Wunderground v.1.15,2013-03-29 14:50:00,
2013-03-29 10:55:00,48.8,33.3,30.08,NNW,336,1.0,3.0,55,0.00,,,0.00,Wunderground v.1.15,2013-03-29 14:55:00,
2013-03-29 11:00:00,49.2,34.2,30.08,NW,313,2.0,2.0,56,0.00,,,0.00,Wunderground v.1.15,2013-03-29 15:00:00,
2013-03-29 11:10:00,49.6,33.6,30.08,South,183,2.0,2.0,54,0.00,,,0.00,Wunderground v.1.15,2013-03-29 15:10:00,
2013-03-29 11:15:00,49.8,33.3,30.08,SW,219,2.0,2.0,53,0.00,,,0.00,Wunderground v.1.15,2013-03-29 15:15:00,
2013-03-29 11:25:00,50.1,32.2,30.08,SW,223,2.0,4.0,50,0.00,,,0.00,Wunderground v.1.15,2013-03-29 15:25:00,
2013-03-29 11:30:00,50.5,32.5,30.07,NNE,26,2.0,2.0,50,0.00,,,0.00,Wunderground v.1.15,2013-03-29 15:30:00,
2013-03-29 11:35:00,50.7,32.7,30.07,ENE,70,2.0,2.0,50,0.00,,,0.00,Wunderground v.1.15,2013-03-29 15:35:00,
2013-03-29 11:40:00,50.8,33.3,30.07,WNW,292,2.0,2.0,51,0.00,,,0.00,Wunderground v.1.15,2013-03-29 15:40:00,
2013-03-29 11:50:00,51.1,32.6,30.06,ESE,117,2.0,2.0,49,0.00,,,0.00,Wunderground v.1.15,2013-03-29 15:50:00,
2013-03-29 11:55:00,51.6,32.5,30.06,NW,314,3.0,3.0,48,0.00,,,0.00,Wunderground v.1.15,2013-03-29 15:55:00,
2013-03-29 12:00:00,51.7,32.1,30.06,NW,316,3.0,3.0,47,0.00,,,0.00,Wunderground v.1.15,2013-03-29 16:00:00,
2013-03-29 12:10:00,51.9,32.3,30.06,South,184,3.0,3.0,47,0.00,,,0.00,Wunderground v.1.15,2013-03-29 16:10:00,
2013-03-29 12:15:00,51.6,32.0,30.05,SW,227,2.0,3.0,47,0.00,,,0.00,Wunderground v.1.15,2013-03-29 16:15:00,
2013-03-29 12:25:00,51.9,31.7,30.05,SW,222,2.0,3.0,46,0.00,,,0.00,Wunderground v.1.15,2013-03-29 16:25:00,
2013-03-29 12:30:00,52.2,33.1,30.05,NW,321,2.0,2.0,48,0.00,,,0.00,Wunderground v.1.15,2013-03-29 16:30:00,
2013-03-29 12:35:00,52.3,31.0,30.05,East,86,2.0,2.0,44,0.00,,,0.00,Wunderground v.1.15,2013-03-29 16:35:00,
2013-03-29 12:45:00,52.5,30.6,30.05,SW,223,2.0,3.0,43,0.00,,,0.00,Wunderground v.1.15,2013-03-29 16:45:00,
2013-03-29 12:50:00,52.3,30.4,30.04,North,5,2.0,5.0,43,0.00,,,0.00,Wunderground v.1.15,2013-03-29 16:50:00,
2013-03-29 12:55:00,52.3,31.6,30.04,NNW,332,3.0,5.0,45,0.00,,,0.00,Wunderground v.1.15,2013-03-29 16:55:00,
2013-03-29 13:00:00,52.5,31.2,30.04,SSW,209,4.0,4.0,44,0.00,,,0.00,Wunderground v.1.15,2013-03-29 17:00:00,
2013-03-29 13:10:00,52.5,28.2,30.04,WNW,289,2.0,3.0,39,0.00,,,0.00,Wunderground v.1.15,2013-03-29 17:10:00,
2013-03-29 13:15:00,52.3,28.7,30.03,NNW,338,2.0,3.0,40,0.00,,,0.00,Wunderground v.1.15,2013-03-29 17:15:00,
2013-03-29 13:25:00,51.9,30.1,30.03,NW,314,2.0,6.0,43,0.00,,,0.00,Wunderground v.1.15,2013-03-29 17:25:00,
2013-03-29 13:30:00,51.6,30.4,30.03,SW,218,2.0,2.0,44,0.00,,,0.00,Wunderground v.1.15,2013-03-29 17:30:00,
2013-03-29 13:35:00,51.1,32.6,30.02,SSW,211,2.0,2.0,49,0.00,,,0.00,Wunderground v.1.15,2013-03-29 17:35:00,
2013-03-29 13:40:00,52.2,30.9,30.02,West,281,2.0,2.0,44,0.00,,,0.00,Wunderground v.1.15,2013-03-29 17:40:00,
2013-03-29 13:50:00,53.6,30.4,30.02,North,355,4.0,7.0,41,0.00,,,0.00,Wunderground v.1.15,2013-03-29 17:50:00,
2013-03-29 13:55:00,53.2,30.1,30.02,NNW,327,5.0,7.0,41,0.00,,,0.00,Wunderground v.1.15,2013-03-29 17:55:00,
2013-03-29 14:00:00,52.8,30.3,30.02,WSW,254,3.0,3.0,42,0.00,,,0.00,Wunderground v.1.15,2013-03-29 18:00:00,
2013-03-29 14:10:00,52.3,30.4,30.02,NW,321,2.0,6.0,43,0.00,,,0.00,Wunderground v.1.15,2013-03-29 18:10:00,
2013-03-29 14:15:00,52.2,29.2,30.02,NW,310,3.0,6.0,41,0.00,,,0.00,Wunderground v.1.15,2013-03-29 18:15:00,
2013-03-29 14:20:00,52.3,29.9,30.02,North,355,2.0,5.0,42,0.00,,,0.00,Wunderground v.1.15,2013-03-29 18:20:00,
2013-03-29 14:30:00,51.6,28.6,30.02,NNE,22,2.0,2.0,41,0.00,,,0.00,Wunderground v.1.15,2013-03-29 18:30:00,
2013-03-29 14:35:00,51.3,29.5,30.02,North,360,3.0,4.0,43,0.00,,,0.00,Wunderground v.1.15,2013-03-29 18:35:00,
2013-03-29 14:40:00,51.0,29.3,30.02,NW,325,3.0,3.0,43,0.00,,,0.00,Wunderground v.1.15,2013-03-29 18:40:00,
2013-03-29 14:45:00,50.8,30.7,30.02,North,360,2.0,4.0,46,0.00,,,0.00,Wunderground v.1.15,2013-03-29 18:45:00,
2013-03-29 14:55:00,51.1,28.2,30.01,SW,218,2.0,2.0,41,0.00,,,0.00,Wunderground v.1.15,2013-03-29 18:55:00,
2013-03-29 15:00:00,51.4,29.1,30.01,NNW,331,2.0,4.0,42,0.00,,,0.00,Wunderground v.1.15,2013-03-29 19:00:00,
2013-03-29 15:10:00,51.7,28.1,30.02,West,276,3.0,3.0,40,0.00,,,0.00,Wunderground v.1.15,2013-03-29 19:10:00,
2013-03-29 15:15:00,51.6,28.0,30.02,North,355,2.0,3.0,40,0.00,,,0.00,Wunderground v.1.15,2013-03-29 19:15:00,
2013-03-29 15:25:00,51.4,27.2,30.01,SSW,193,2.0,2.0,39,0.00,,,0.00,Wunderground v.1.15,2013-03-29 19:25:00,
2013-03-29 15:30:00,51.4,28.5,30.01,NNW,328,1.0,2.0,41,0.00,,,0.00,Wunderground v.1.15,2013-03-29 19:30:00,
2013-03-29 15:35:00,51.7,28.1,30.01,WNW,291,2.0,3.0,40,0.00,,,0.00,Wunderground v.1.15,2013-03-29 19:35:00,
2013-03-29 15:45:00,51.7,27.5,30.01,NNW,338,2.0,3.0,39,0.00,,,0.00,Wunderground v.1.15,2013-03-29 19:45:00,
2013-03-29 15:50:00,51.6,26.8,30.01,SW,218,1.0,2.0,38,0.00,,,0.00,Wunderground v.1.15,2013-03-29 19:50:00,
2013-03-29 15:55:00,50.8,28.5,30.02,WNW,285,1.0,2.0,42,0.00,,,0.00,Wunderground v.1.15,2013-03-29 19:55:00,
2013-03-29 16:00:00,50.4,28.7,30.02,South,170,2.0,2.0,43,0.00,,,0.00,Wunderground v.1.15,2013-03-29 20:00:00,
2013-03-29 16:10:00,49.5,29.0,30.02,North,355,2.0,2.0,45,0.00,,,0.00,Wunderground v.1.15,2013-03-29 20:10:00,
2013-03-29 16:15:00,49.4,28.9,30.02,NW,315,1.0,2.0,45,0.00,,,0.00,Wunderground v.1.15,2013-03-29 20:15:00,
2013-03-29 16:20:00,49.2,28.7,30.02,NNW,335,2.0,2.0,45,0.00,,,0.00,Wunderground v.1.15,2013-03-29 20:20:00,
2013-03-29 16:30:00,48.9,29.0,30.02,WNW,293,1.0,2.0,46,0.00,,,0.00,Wunderground v.1.15,2013-03-29 20:30:00,
2013-03-29 16:35:00,48.9,29.0,30.02,SW,215,1.0,2.0,46,0.00,,,0.00,Wunderground v.1.15,2013-03-29 20:35:00,
2013-03-29 16:40:00,48.6,29.3,30.02,NNW,335,1.0,1.0,47,0.00,,,0.00,Wunderground v.1.15,2013-03-29 20:40:00,
2013-03-29 16:45:00,48.5,29.7,30.02,NE,45,1.0,1.0,48,0.00,,,0.00,Wunderground v.1.15,2013-03-29 20:45:00,
2013-03-29 16:55:00,47.9,30.6,30.02,NW,309,1.0,1.0,51,0.00,,,0.00,Wunderground v.1.15,2013-03-29 20:55:00,
2013-03-29 17:00:00,47.6,30.3,30.03,West,268,1.0,1.0,51,0.00,,,0.00,Wunderground v.1.15,2013-03-29 21:00:00,
2013-03-29 17:10:00,47.4,30.2,30.03,NW,321,1.0,1.0,51,0.00,,,0.00,Wunderground v.1.15,2013-03-29 21:10:00,
2013-03-29 17:15:00,47.1,31.7,30.03,WSW,257,0.0,1.0,55,0.00,,,0.00,Wunderground v.1.15,2013-03-29 21:15:00,
2013-03-29 17:20:00,46.8,30.1,30.03,NW,306,1.0,1.0,52,0.00,,,0.00,Wunderground v.1.15,2013-03-29 21:20:00,
2013-03-29 17:25:00,46.7,30.9,30.03,NW,306,0.0,1.0,54,0.00,,,0.00,Wunderground v.1.15,2013-03-29 21:25:00,
2013-03-29 17:30:00,46.4,30.2,30.03,SW,216,1.0,2.0,53,0.00,,,0.00,Wunderground v.1.15,2013-03-29 21:30:00,
2013-03-29 17:40:00,46.1,32.6,30.03,South,171,1.0,1.0,59,0.00,,,0.00,Wunderground v.1.15,2013-03-29 21:40:00,
2013-03-29 17:45:00,45.7,30.9,30.03,South,171,0.0,1.0,56,0.00,,,0.00,Wunderground v.1.15,2013-03-29 21:45:00,
2013-03-29 17:50:00,45.4,31.0,30.03,South,184,0.0,0.0,57,0.00,,,0.00,Wunderground v.1.15,2013-03-29 21:50:00,
2013-03-29 18:00:00,44.6,32.0,30.04,South,189,0.0,0.0,61,0.00,,,0.00,Wunderground v.1.15,2013-03-29 22:00:00,
2013-03-29 18:05:00,44.2,32.4,30.04,NNW,336,0.0,0.0,63,0.00,,,0.00,Wunderground v.1.15,2013-03-29 22:05:00,
2013-03-29 18:10:00,43.8,32.4,30.04,SSW,198,1.0,1.0,64,0.00,,,0.00,Wunderground v.1.15,2013-03-29 22:10:00,
2013-03-29 18:20:00,43.1,32.5,30.04,SW,225,0.0,3.0,66,0.00,,,0.00,Wunderground v.1.15,2013-03-29 22:20:00,
2013-03-29 18:25:00,42.8,32.2,30.04,SW,225,0.0,3.0,66,0.00,,,0.00,Wunderground v.1.15,2013-03-29 22:25:00,
2013-03-29 18:30:00,42.6,32.0,30.05,SW,225,0.0,0.0,66,0.00,,,0.00,Wunderground v.1.15,2013-03-29 22:30:00,
2013-03-29 18:40:00,42.1,31.9,30.05,SW,225,0.0,0.0,67,0.00,,,0.00,Wunderground v.1.15,2013-03-29 22:40:00,
2013-03-29 18:45:00,41.9,32.1,30.05,SW,225,0.0,0.0,68,0.00,,,0.00,Wunderground v.1.15,2013-03-29 22:45:00,
2013-03-29 18:55:00,41.3,31.5,30.05,NNW,333,0.0,0.0,68,0.00,,,0.00,Wunderground v.1.15,2013-03-29 22:55:00,
2013-03-29 19:00:00,41.3,31.5,30.06,NNW,333,0.0,1.0,68,0.00,,,0.00,Wunderground v.1.15,2013-03-29 23:00:00,
2013-03-29 19:05:00,41.6,31.1,30.06,South,182,1.0,1.0,66,0.00,,,0.00,Wunderground v.1.15,2013-03-29 23:05:00,
2013-03-29 19:15:00,42.5,31.2,30.06,West,265,2.0,4.0,64,0.00,,,0.00,Wunderground v.1.15,2013-03-29 23:15:00,
2013-03-29 19:20:00,42.5,32.3,30.06,West,265,1.0,1.0,67,0.00,,,0.00,Wunderground v.1.15,2013-03-29 23:20:00,
2013-03-29 19:25:00,42.1,31.9,30.06,West,265,0.0,1.0,67,0.00,,,0.00,Wunderground v.1.15,2013-03-29 23:25:00,
2013-03-29 19:35:00,41.5,32.1,30.06,WSW,253,0.0,0.0,69,0.00,,,0.00,Wunderground v.1.15,2013-03-29 23:35:00,
2013-03-29 19:40:00,41.3,32.2,30.06,WSW,253,0.0,0.0,70,0.00,,,0.00,Wunderground v.1.15,2013-03-29 23:40:00,
2013-03-29 19:45:00,41.1,32.8,30.06,WSW,253,0.0,0.0,72,0.00,,,0.00,Wunderground v.1.15,2013-03-29 23:45:00,
2013-03-29 19:55:00,40.3,32.3,30.07,WSW,253,0.0,0.0,73,0.00,,,0.00,Wunderground v.1.15,2013-03-29 23:55:00,
2013-03-29 20:00:00,40.1,32.5,30.07,WSW,253,0.0,0.0,74,0.00,,,0.00,Wunderground v.1.15,2013-03-30 00:00:00,
2013-03-29 20:10:00,39.3,32.7,30.07,WSW,253,0.0,0.0,77,0.00,,,0.00,Wunderground v.1.15,2013-03-30 00:10:00,
2013-03-29 20:15:00,39.1,32.8,30.07,WSW,253,0.0,0.0,78,0.00,,,0.00,Wunderground v.1.15,2013-03-30 00:15:00,
2013-03-29 20:20:00,38.8,32.8,30.07,WSW,253,0.0,0.0,79,0.00,,,0.00,Wunderground v.1.15,2013-03-30 00:20:00,
2013-03-29 20:25:00,38.5,32.9,30.08,SW,222,0.0,0.0,80,0.00,,,0.00,Wunderground v.1.15,2013-03-30 00:25:00,
2013-03-29 20:35:00,38.3,33.3,30.07,SW,219,0.0,0.0,82,0.00,,,0.00,Wunderground v.1.15,2013-03-30 00:35:00,
2013-03-29 20:40:00,38.2,33.2,30.08,SW,219,0.0,0.0,82,0.00,,,0.00,Wunderground v.1.15,2013-03-30 00:40:00,
2013-03-29 20:50:00,37.9,33.2,30.08,SW,219,0.0,0.0,83,0.00,,,0.00,Wunderground v.1.15,2013-03-30 00:50:00,
2013-03-29 20:55:00,37.8,33.4,30.08,SW,219,0.0,0.0,84,0.00,,,0.00,Wunderground v.1.15,2013-03-30 00:55:00,
2013-03-29 21:00:00,37.6,33.2,30.08,SW,219,0.0,0.0,84,0.00,,,0.00,Wunderground v.1.15,2013-03-30 01:00:00,
2013-03-29 21:10:00,37.6,33.2,30.08,SW,219,1.0,3.0,84,0.00,,,0.00,Wunderground v.1.15,2013-03-30 01:10:00,
2013-03-29 21:15:00,37.5,33.4,30.08,SW,219,1.0,3.0,85,0.00,,,0.00,Wunderground v.1.15,2013-03-30 01:15:00,
2013-03-29 21:25:00,37.3,33.2,30.08,SW,219,0.0,0.0,85,0.00,,,0.00,Wunderground v.1.15,2013-03-30 01:25:00,
2013-03-29 21:30:00,37.2,33.4,30.09,WSW,238,0.0,0.0,86,0.00,,,0.00,Wunderground v.1.15,2013-03-30 01:30:00,
2013-03-29 21:35:00,37.2,33.4,30.09,WSW,238,0.0,0.0,86,0.00,,,0.00,Wunderground v.1.15,2013-03-30 01:35:00,
2013-03-29 21:40:00,37.0,33.2,30.09,WSW,238,0.0,0.0,86,0.00,,,0.00,Wunderground v.1.15,2013-03-30 01:40:00,
2013-03-29 21:50:00,36.9,33.1,30.09,WSW,238,0.0,0.0,86,0.00,,,0.00,Wunderground v.1.15,2013-03-30 01:50:00,
2013-03-29 21:55:00,36.8,33.0,30.09,WSW,238,0.0,0.0,86,0.00,,,0.00,Wunderground v.1.15,2013-03-30 01:55:00,
2013-03-29 22:00:00,36.6,33.1,30.09,WSW,238,0.0,2.0,87,0.00,,,0.00,Wunderground v.1.15,2013-03-30 02:00:00,
2013-03-29 22:10:00,36.5,32.7,30.09,WSW,238,0.0,0.0,86,0.00,,,0.00,Wunderground v.1.15,2013-03-30 02:10:00,
2013-03-29 22:15:00,36.3,32.8,30.09,WSW,238,0.0,0.0,87,0.00,,,0.00,Wunderground v.1.15,2013-03-30 02:15:00,
2013-03-29 22:25:00,36.0,32.5,30.09,WSW,238,0.0,0.0,87,0.00,,,0.00,Wunderground v.1.15,2013-03-30 02:25:00,
2013-03-29 22:30:00,35.9,32.4,30.09,WSW,238,0.0,0.0,87,0.00,,,0.00,Wunderground v.1.15,2013-03-30 02:30:00,
2013-03-29 22:35:00,35.8,32.3,30.09,WSW,238,0.0,0.0,87,0.00,,,0.00,Wunderground v.1.15,2013-03-30 02:35:00,
2013-03-29 22:45:00,35.6,32.1,30.09,WSW,238,0.0,0.0,87,0.00,,,0.00,Wunderground v.1.15,2013-03-30 02:45:00,
2013-03-29 22:50:00,35.5,32.0,30.09,WSW,238,0.0,0.0,87,0.00,,,0.00,Wunderground v.1.15,2013-03-30 02:50:00,
2013-03-29 22:55:00,35.3,32.1,30.09,WSW,238,0.0,0.0,88,0.00,,,0.00,Wunderground v.1.15,2013-03-30 02:55:00,
2013-03-29 23:05:00,35.0,31.5,30.09,WSW,238,0.0,0.0,87,0.00,,,0.00,Wunderground v.1.15,2013-03-30 03:05:00,
2013-03-29 23:15:00,34.6,31.1,30.09,WSW,238,0.0,0.0,87,0.00,,,0.00,Wunderground v.1.15,2013-03-30 03:15:00,
2013-03-29 23:20:00,34.3,30.8,30.09,WSW,238,0.0,0.0,87,0.00,,,0.00,Wunderground v.1.15,2013-03-30 03:20:00,
2013-03-29 23:25:00,34.0,30.8,30.09,WSW,238,0.0,0.0,88,0.00,,,0.00,Wunderground v.1.15,2013-03-30 03:25:00,
2013-03-29 23:35:00,33.5,30.3,30.09,WSW,238,0.0,0.0,88,0.00,,,0.00,Wunderground v.1.15,2013-03-30 03:35:00,
2013-03-29 23:40:00,33.4,30.2,30.09,WSW,238,0.0,0.0,88,0.00,,,0.00,Wunderground v.1.15,2013-03-30 03:40:00,
2013-03-29 23:45:00,33.2,30.0,30.09,WSW,238,0.0,0.0,88,0.00,,,0.00,Wunderground v.1.15,2013-03-30 03:45:00,
2013-03-29 23:55:00,32.8,29.9,30.09,WSW,238,0.0,0.0,89,0.00,,,0.00,Wunderground v.1.15,2013-03-30 03:55:00,